Meath Environmental Platform

Observations for Trim Patrick St

Time AQI Temp °C Hum % Pres Pa CO μg/m³ H₂S μg/m³ NO μg/m³ NO₂ μg/m³ O₃ μg/m³ SO₂ μg/m³ PM1 μg/m³ PM2.5 μg/m³ PM10 μg/m³
Sunday 2 August 2026
20:50 3 17.2 68 5,875 0.02 13.18 1.27 45 26.32 0.79 3.71 7.43 8.18
20:49 3 17.2 68 108,951 0 12.08 1.31 43.94 25.78 0.19 3.71 8.16 8.97
20:48 3 17.3 68 102,610 0 13.16 1.37 34.29 26.83 0.36 4.57 8.2 9.02
20:47 3 17.3 68 95,140 0 14.15 1.35 60.94 34.82 0.27 3.71 8.22 9.04
20:46 3 17.4 68 88,817 0 12.45 1.23 34.61 36.07 0.1 3.71 8.22 9.04
20:45 3 17.4 67 85,205 0 12.92 1.28 43.12 27.64 0 4.57 8.25 9.08
20:44 3 17.4 66 82,378 0 12.58 1.21 52.4 44.89 0.38 3.71 7.61 8.37
20:43 3 17.5 67 80,512 0 10.96 1.16 29.19 33.43 0.88 3.71 7.54 8.3
20:42 3 17.6 66 79,255 0 13.03 1.17 45.15 19.48 0.36 2.86 7.6 8.36
20:41 3 17.6 66 78,129 0 14.52 1.24 45.52 40.94 1.01 4.57 9.04 9.94
20:40 3 17.6 66 77,186 0 14.18 1.2 47.65 42.45 0.84 3.71 7.61 8.37
20:39 3 17.7 65 76,533 0 14 1.32 47.59 36.61 0.7 3.71 7.66 8.42
20:38 3 17.7 66 76,120 0.02 11.96 1.21 36.58 27.2 0.79 3.71 8.35 9.19
20:37 3 17.7 65 75,829 0 11.72 1.24 50.78 22.5 0.48 4.57 8.42 9.26
20:36 3 17.8 65 75,580 0 10.65 1.23 37.58 35.65 0.73 2.86 6.96 7.65
20:35 3 17.8 65 75,444 0 9.68 1.21 29.35 35.35 0.69 3.71 7.68 8.44
20:34 3 17.8 64 75,326 0 8.79 1.21 31.51 34.17 0.52 2.86 7.72 8.5
20:33 3 17.9 64 75,226 0 9.49 1.2 33.61 32.15 0.56 3.71 8.47 9.32
20:32 3 17.9 64 75,128 0 9.52 1.19 33.97 41.97 0.36 4.57 9.22 10.14
20:31 3 18 64 75,065 0 7.76 1.17 28.87 35.43 0.69 3.71 7.75 8.52